Latest Coastal Weather Observations for Melbourne

IDV60701

Issued at 10:25 am EDT Sunday 26 October 2014 (issued every 10 minutes, with the page automatically refreshed every 10 minutes)

About coastal observations | Map of coastal stations | Coastal observations for VIC | Marine services | Other Formats
Station Details ID: 086071 Name: MELBOURNE REGIONAL OFFICE Lat: -37.81 Lon: 144.97 Height: 31.15 m
Data from the previous 72 hours. | See also: Recent months at Melbourne
Date/Time
EDT
Temp

°C
Wind Pressure Rain
since 9am
mm
Weather Cloud Vis
km
Sea
Height
m
Swell
Dir
 
Speed
knots
Gust
knots
hPa Trend Height
m
Period
s
Dir
26/10:00am 15.5 - - - 1014.7 - 0.0 - - - - - - -
26/09:30am 14.6 - - - 1014.2 - 0.0 - - - - - - -
26/09:00am 14.5 - - - 1014.2 - 0.0 - - - - - - -
26/08:30am 14.4 - - - 1014.3 - 0.0 - - - - - - -
26/08:00am 14.4 - - - 1013.7 - 0.0 - - - - - - -
26/07:30am 14.1 - - - 1014.0 - 0.0 - - - - - - -
26/07:00am 14.1 - - - 1013.8 - 0.0 - - - - - - -
26/06:30am 14.0 - - - 1013.3 - 0.0 - - - - - - -
26/06:00am 14.2 - - - 1013.1 - 0.0 - - - - - - -
26/05:30am 14.1 - - - 1013.2 - 0.0 - - - - - - -
26/05:00am 14.2 - - - 1013.4 - 0.0 - - - - - - -
26/04:30am 14.2 - - - 1013.0 - 0.0 - - - - - - -
26/04:00am 14.4 - - - 1013.3 - 0.0 - - - - - - -
26/03:30am 14.3 - - - 1012.9 - 0.0 - - - - - - -
26/03:00am 14.5 - - - 1013.4 - 0.0 - - - - - - -
26/02:30am 14.5 - - - 1013.3 - 0.0 - - - - - - -
26/02:00am 14.9 - - - 1014.2 - 0.0 - - - - - - -
26/01:30am 14.9 - - - 1014.6 - 0.0 - - - - - - -
26/01:00am 14.8 - - - 1014.9 - 0.0 - - - - - - -
26/12:30am 14.7 - - - 1015.3 - 0.0 - - - - - - -
26/12:00am 14.8 - - - 1015.4 - 0.0 - - - - - - -
 
Date/Time
EDT
Temp

°C
Wind Pressure Rain
since 9am
mm
Weather Cloud Vis
km
Sea
Height
m
Swell
Dir
 
Speed
knots
Gust
knots
hPa Trend Height
m
Period
s
Dir
25/11:30pm 15.1 - - - 1016.0 - 0.0 - - - - - - -
25/11:00pm 15.1 - - - 1016.1 - 0.0 - - - - - - -
25/10:30pm 15.1 - - - 1016.4 - 0.0 - - - - - - -
25/10:00pm 15.0 - - - 1016.4 - 0.0 - - - - - - -
25/09:30pm 15.1 - - - 1016.2 - 0.0 - - - - - - -
25/09:00pm 15.2 - - - 1015.9 - 0.0 - - - - - - -
25/08:30pm 15.6 - - - 1016.0 - 0.0 - - - - - - -
25/08:00pm 15.9 - - - 1015.5 - 0.0 - - - - - - -
25/07:30pm 16.4 - - - 1015.4 - 0.0 - - - - - - -
25/07:00pm 16.8 - - - 1015.2 - 0.0 - - - - - - -
25/06:30pm 16.4 - - - 1015.0 - 0.0 - - - - - - -
25/06:00pm 17.9 - - - 1014.7 - 0.0 - - - - - - -
25/05:30pm 18.2 - - - 1014.7 - 0.0 - - - - - - -
25/05:00pm 18.2 - - - 1014.6 - 0.0 - - - - - - -
25/04:30pm 19.2 - - - 1014.5 - 0.0 - - - - - - -
25/04:00pm 19.8 - - - 1014.5 - 0.0 - - - - - - -
25/03:30pm 19.8 - - - 1014.6 - 0.0 - - - - - - -
25/03:00pm 19.7 - - - 1014.9 - 0.0 - - - - - - -
25/02:30pm 18.7 - - - 1015.4 - 0.0 - - - - - - -
25/02:00pm 18.3 - - - 1015.8 - 0.0 - - - - - - -
25/01:30pm 18.8 - - - 1015.9 - 0.0 - - - - - - -
25/01:00pm 17.8 - - - 1016.1 - 0.0 - - - - - - -
25/12:30pm 17.8 - - - 1016.4 - 0.0 - - - - - - -
25/12:00pm 17.0 - - - 1016.8 - 0.0 - - - - - - -
25/11:30am 16.8 - - - 1017.2 - 0.0 - - - - - - -
25/11:00am 16.4 - - - 1017.6 - 0.0 - - - - - - -
25/10:30am 15.8 - - - 1017.6 - 0.0 - - - - - - -
25/10:00am 15.9 - - - 1017.5 - 0.0 - - - - - - -
25/09:30am 16.2 - - - 1017.3 - 0.0 - - - - - - -
25/09:00am 15.5 - - - 1017.4 - 0.0 - - - - - - -
25/08:30am 15.3 - - - 1017.6 - 0.0 - - - - - - -
25/08:00am 15.2 - - - 1017.5 - 0.0 - - - - - - -
25/07:30am 15.1 - - - 1017.3 - 0.0 - - - - - - -
25/07:00am 15.2 - - - 1016.9 - 0.0 - - - - - - -
25/06:30am 15.3 - - - 1016.8 - 0.0 - - - - - - -
25/06:00am 15.2 - - - 1016.5 - 0.0 - - - - - - -
25/05:30am 15.3 - - - 1016.6 - 0.0 - - - - - - -
25/05:00am 15.2 - - - 1016.3 - 0.0 - - - - - - -
25/04:30am 15.0 - - - 1016.1 - 0.0 - - - - - - -
25/04:00am 15.1 - - - 1016.2 - 0.0 - - - - - - -
25/03:30am 15.0 - - - 1016.2 - 0.0 - - - - - - -
25/03:00am 14.9 - - - 1016.2 - 0.0 - - - - - - -
25/02:30am 15.2 - - - 1016.3 - 0.0 - - - - - - -
25/02:00am 15.4 - - - 1016.4 - 0.0 - - - - - - -
25/01:30am 16.3 - - - 1016.5 - 0.0 - - - - - - -
25/01:00am 16.1 - - - 1016.5 - 0.0 - - - - - - -
25/12:30am 16.4 - - - 1016.4 - 0.0 - - - - - - -
25/12:00am 16.3 - - - 1016.4 - 0.0 - - - - - - -
 
Date/Time
EDT
Temp

°C
Wind Pressure Rain
since 9am
mm
Weather Cloud Vis
km
Sea
Height
m
Swell
Dir
 
Speed
knots
Gust
knots
hPa Trend Height
m
Period
s
Dir
24/11:30pm 16.3 - - - 1016.4 - 0.0 - - - - - - -
24/11:00pm 16.7 - - - 1016.4 - 0.0 - - - - - - -
24/10:30pm 16.4 - - - 1016.1 - 0.0 - - - - - - -
24/10:00pm 16.3 - - - 1015.7 - 0.0 - - - - - - -
24/09:30pm 16.5 - - - 1015.1 - 0.0 - - - - - - -
24/09:00pm 16.9 - - - 1014.1 - 0.0 - - - - - - -
24/08:30pm 17.3 - - - 1013.6 - 0.0 - - - - - - -
24/08:00pm 19.0 - - - 1012.6 - 0.0 - - - - - - -
24/07:30pm 20.2 - - - 1011.8 - 0.0 - - - - - - -
24/07:00pm 22.0 - - - 1011.1 - 0.0 - - - - - - -
24/06:30pm 25.5 - - - 1010.1 - 0.0 - - - - - - -
24/06:00pm 27.3 - - - 1009.6 - 0.0 - - - - - - -
24/05:30pm 29.2 - - - 1009.4 - 0.0 - - - - - - -
24/05:00pm 30.4 - - - 1009.2 - 0.0 - - - - - - -
24/04:30pm 29.8 - - - 1009.3 - 0.0 - - - - - - -
24/04:00pm 29.0 - - - 1009.6 - 0.0 - - - - - - -
24/03:30pm 28.6 - - - 1009.8 - 0.0 - - - - - - -
24/03:00pm 28.1 - - - 1009.8 F 0.0 Haze Partly cloudy 25 - - - -
24/02:30pm 28.2 - - - 1010.0 - 0.0 - - - - - - -
24/02:00pm 27.7 - - - 1010.2 - 0.0 - - - - - - -
24/01:30pm 28.1 - - - 1010.3 - 0.0 - - - - - - -
24/01:00pm 27.9 - - - 1010.4 - 0.0 - - - - - - -
24/12:30pm 26.1 - - - 1010.8 - 0.0 - - - - - - -
24/12:00pm 24.0 - - - 1011.1 F 0.0 Haze Mostly cloudy 15 - - - -
24/11:30am 22.9 - - - 1011.3 - 0.0 - - - - - - -
24/11:00am 25.3 - - - 1011.1 - 0.0 - - - - - - -
24/10:30am 22.5 - - - 1011.5 - 0.0 - - - - - - -
24/10:00am 21.2 - - - 1011.7 - 0.0 - - - - - - -
24/09:30am 19.9 - - - 1011.6 - 0.0 - - - - - - -
24/09:00am 18.3 - - - 1011.9 F 0.0 Haze Partly cloudy 5 - - - -
24/08:30am 16.8 - - - 1012.3 - 0.0 - - - - - - -
24/08:00am 15.7 - - - 1012.3 - 0.0 - - - - - - -
24/07:30am 15.6 - - - 1012.4 - 0.0 - - - - - - -
24/07:00am 15.7 - - - 1012.4 - 0.0 - - - - - - -
24/06:30am 15.5 - - - 1012.3 - 0.0 - - - - - - -
24/06:00am 15.5 - - - 1012.2 - 0.0 - - - - - - -
24/05:30am 15.4 - - - 1012.4 - 0.0 - - - - - - -
24/05:00am 15.5 - - - 1012.5 - 0.0 - - - - - - -
24/04:30am 15.6 - - - 1012.5 - 0.0 - - - - - - -
24/04:00am 15.5 - - - 1012.6 - 0.0 - - - - - - -
24/03:30am 15.5 - - - 1012.7 - 0.0 - - - - - - -
24/03:00am 15.5 - - - 1012.8 - 0.0 - - - - - - -
24/02:30am 15.5 - - - 1013.4 - 0.0 - - - - - - -
24/02:00am 15.5 - - - 1013.7 - 0.0 - - - - - - -
24/01:30am 15.6 - - - 1014.0 - 0.0 - - - - - - -
24/01:00am 15.7 - - - 1014.4 - 0.0 - - - - - - -
24/12:30am 15.6 - - - 1014.6 - 0.0 - - - - - - -
24/12:00am 16.0 - - - 1014.9 - 0.0 - - - - - - -
 
Date/Time
EDT
Temp

°C
Wind Pressure Rain
since 9am
mm
Weather Cloud Vis
km
Sea
Height
m
Swell
Dir
 
Speed
knots
Gust
knots
hPa Trend Height
m
Period
s
Dir
23/11:30pm 16.7 - - - 1015.1 - 0.0 - - - - - - -
23/11:00pm 16.7 - - - 1015.1 - 0.0 - - - - - - -
23/10:30pm 17.4 - - - 1015.2 - 0.0 - - - - - - -
23/10:00pm 17.6 - - - 1015.3 - 0.0 - - - - - - -
23/09:30pm 17.8 - - - 1015.1 - 0.0 - - - - - - -
23/09:00pm 18.0 - - - 1014.8 - 0.0 - - - - - - -
23/08:30pm 18.4 - - - 1014.7 - 0.0 - - - - - - -
23/08:00pm 19.0 - - - 1014.7 - 0.0 - - - - - - -
23/07:30pm 19.6 - - - 1014.8 - 0.0 - - - - - - -
23/07:00pm 20.2 - - - 1014.7 - 0.0 - - - - - - -
23/06:30pm 21.4 - - - 1014.6 - 0.0 - - - - - - -
23/06:00pm 22.7 - - - 1014.6 - 0.0 - - - - - - -
23/05:30pm 21.2 - - - 1015.0 - 0.0 - - - - - - -
23/05:00pm 20.8 - - - 1015.4 - 0.0 - - - - - - -
23/04:30pm 19.8 - - - 1015.8 - 0.0 - - - - - - -
23/04:00pm 19.3 - - - 1016.1 - 0.0 - - - - - - -
23/03:30pm 19.2 - - - 1016.5 - 0.0 - - - - - - -
23/03:00pm 18.7 - - - 1016.9 F 0.0 Haze Mostly cloudy 15 - - - -
23/02:30pm 18.5 - - - 1017.5 - 0.0 - - - - - - -
23/02:00pm 18.2 - - - 1017.9 - 0.0 - - - - - - -
23/01:30pm 17.2 - - - 1018.3 - 0.0 - - - - - - -
23/01:00pm 17.3 - - - 1018.8 - 0.0 - - - - - - -
23/12:30pm 17.2 - - - 1019.0 - 0.0 - - - - - - -
23/12:00pm 16.7 - - - 1019.5 F 0.0 Haze Cloudy 10 - - - -
23/11:30am 16.4 - - - 1019.6 - 0.0 - - - - - - -
23/11:00am 16.3 - - - 1020.1 - 0.0 - - - - - - -
23/10:30am 16.3 - - - 1020.2 - 0.0 - - - - - - -

Other Formats:

Comma delimited format used in spreadsheet applications
http://www.bom.gov.au/fwo/IDV60701/IDV60701.94868.axf

JavaScript Object Notation format (JSON) in row-major order
http://www.bom.gov.au/fwo/IDV60701/IDV60701.94868.json